Location: *
(43.0167°S, 179.9000°E)
Time: 20:56:52
(UTC+00:00)

Cosmos 2278 Rocket - Pass Details

Date: 12 August 2024
Orbit: 841 x 844 km, 71.0° (Epoch: 19 September)

Event Time Altitude Azimuth Distance (km) Brightness Sun altitude
Exits shadow 15:29:06 16° 52° (NE) 2,091 4.5 -38.2°
Maximum altitude 15:31:20 20° 80° (E) 1,889 4.5 -37.8°
Drops below altitude 10° 15:35:19 10° 125° (SE) 2,495 5.3 -37.1°
Sets 15:38:24 0° 141° (SE) 3,439 6.0 -36.6°
